TimePST,TemperatureF,Dew PointF,Humidity,Sea Level PressureIn,VisibilityMPH,Wind Direction,Wind SpeedMPH,Gust SpeedMPH,PrecipitationIn,Events,Conditions,WindDirDegrees,DateUTC
12:15 AM,32.0,24.8,75,30.10,10.0,SSE,4.6,-,N/A,,Scattered Clouds,160,2012-11-16 08:15:00
12:35 AM,35.6,23.0,60,30.10,10.0,Calm,Calm,-,N/A,,Mostly Cloudy,0,2012-11-16 08:35:00
12:55 AM,35.6,23.0,60,30.10,10.0,Calm,Calm,-,N/A,,Overcast,0,2012-11-16 08:55:00
1:15 AM,33.8,23.0,65,30.09,10.0,Calm,Calm,-,N/A,,Scattered Clouds,0,2012-11-16 09:15:00
1:35 AM,33.8,23.0,65,30.09,10.0,SSW,4.6,-,N/A,,Scattered Clouds,210,2012-11-16 09:35:00
1:55 AM,32.0,24.8,75,30.09,10.0,Calm,Calm,-,N/A,,Mostly Cloudy,0,2012-11-16 09:55:00
2:15 AM,32.0,24.8,75,30.09,10.0,ESE,3.5,-,N/A,,Overcast,120,2012-11-16 10:15:00
2:35 AM,32.0,23.0,69,30.08,10.0,Calm,Calm,-,N/A,,Overcast,0,2012-11-16 10:35:00
2:55 AM,32.0,24.8,75,30.08,10.0,Calm,Calm,-,N/A,,Overcast,0,2012-11-16 10:55:00
3:15 AM,32.0,24.8,75,30.07,10.0,Calm,Calm,-,N/A,,Overcast,0,2012-11-16 11:15:00
3:35 AM,33.8,24.8,70,30.07,10.0,Calm,Calm,-,N/A,,Overcast,0,2012-11-16 11:35:00
3:55 AM,32.0,26.6,80,30.06,10.0,Calm,Calm,-,N/A,,Overcast,0,2012-11-16 11:55:00
4:15 AM,32.0,26.6,80,30.05,10.0,SW,3.5,-,N/A,,Overcast,230,2012-11-16 12:15:00
4:35 AM,32.0,26.6,80,30.05,10.0,SW,3.5,-,N/A,,Mostly Cloudy,220,2012-11-16 12:35:00
4:55 AM,32.0,28.4,87,30.05,10.0,Calm,Calm,-,N/A,,Overcast,0,2012-11-16 12:55:00
5:15 AM,32.0,26.6,80,30.05,10.0,Calm,Calm,-,N/A,,Overcast,0,2012-11-16 13:15:00
5:35 AM,33.8,26.6,75,30.05,10.0,Calm,Calm,-,N/A,,Overcast,0,2012-11-16 13:35:00
6:45 AM,33.8,26.6,75,30.05,10.0,Calm,Calm,-,N/A,,Overcast,0,2012-11-16 14:45:00
7:45 AM,33.8,30.2,87,30.07,10.0,Calm,Calm,-,N/A,,Overcast,0,2012-11-16 15:45:00
8:45 AM,35.6,33.8,93,30.08,10.0,North,4.6,-,N/A,,Overcast,350,2012-11-16 16:45:00
9:50 AM,37.4,33.8,87,30.08,10.0,SSE,4.6,-,N/A,,Overcast,160,2012-11-16 17:50:00
10:45 AM,37.4,35.6,93,30.08,10.0,Calm,Calm,-,N/A,,Overcast,0,2012-11-16 18:45:00
11:45 AM,37.4,35.6,93,30.05,10.0,NNW,3.5,-,N/A,,Overcast,340,2012-11-16 19:45:00
12:50 PM,41.0,35.6,81,30.04,10.0,Calm,Calm,-,N/A,,Mostly Cloudy,0,2012-11-16 20:50:00
1:45 PM,42.8,37.4,81,30.02,10.0,NW,4.6,-,N/A,,Mostly Cloudy,310,2012-11-16 21:45:00
2:45 PM,41.0,37.4,87,30.02,10.0,WSW,5.8,-,N/A,,Mostly Cloudy,250,2012-11-16 22:45:00
3:50 PM,41.0,35.6,81,30.03,10.0,SW,5.8,-,N/A,,Mostly Cloudy,220,2012-11-16 23:50:00
4:45 PM,39.2,35.6,87,30.03,8.0,SW,6.9,-,N/A,,Mostly Cloudy,230,2012-11-17 00:45:00
5:15 PM,37.4,35.6,93,30.03,10.0,Calm,Calm,-,N/A,,Scattered Clouds,0,2012-11-17 01:15:00
5:55 PM,37.4,35.6,93,30.03,10.0,SSW,6.9,-,N/A,,Mostly Cloudy,210,2012-11-17 01:55:00
6:15 PM,37.4,35.6,93,30.03,10.0,SSE,3.5,-,N/A,,Overcast,160,2012-11-17 02:15:00
6:35 PM,37.4,35.6,93,30.03,10.0,Calm,Calm,-,N/A,,Mostly Cloudy,0,2012-11-17 02:35:00
6:55 PM,37.4,35.6,93,30.03,10.0,North,5.8,-,N/A,,Overcast,350,2012-11-17 02:55:00
7:15 PM,37.4,35.6,93,30.03,10.0,North,3.5,-,N/A,,Overcast,10,2012-11-17 03:15:00
7:35 PM,35.6,35.6,100,30.02,8.0,Calm,Calm,-,N/A,,Overcast,0,2012-11-17 03:35:00
7:55 PM,35.6,35.6,100,30.02,10.0,Calm,Calm,-,N/A,,Overcast,0,2012-11-17 03:55:00
8:15 PM,37.4,35.6,93,30.02,10.0,North,3.5,-,N/A,,Overcast,360,2012-11-17 04:15:00
8:35 PM,37.4,35.6,93,30.02,9.0,North,3.5,-,N/A,,Mostly Cloudy,350,2012-11-17 04:35:00
8:55 PM,35.6,35.6,100,30.02,9.0,Calm,Calm,-,N/A,Rain,Light Rain,0,2012-11-17 04:55:00
9:15 PM,35.6,35.6,100,30.02,7.0,Calm,Calm,-,N/A,Rain,Light Rain,0,2012-11-17 05:15:00
9:35 PM,37.4,35.6,93,30.02,10.0,NNW,3.5,-,N/A,,Overcast,330,2012-11-17 05:35:00
9:55 PM,35.6,35.6,100,30.02,8.0,South,3.5,-,N/A,,Overcast,170,2012-11-17 05:55:00
10:15 PM,35.6,33.8,93,30.02,5.0,SE,3.5,-,N/A,,Overcast,130,2012-11-17 06:15:00
10:35 PM,35.6,35.6,100,30.02,4.0,Calm,Calm,-,N/A,Rain,Light Rain,0,2012-11-17 06:35:00
10:55 PM,35.6,35.6,100,30.01,3.0,Calm,Calm,-,0.01,Rain,Light Rain,0,2012-11-17 06:55:00
11:15 PM,35.6,35.6,100,30.01,2.0,Calm,Calm,-,0.01,Rain,Light Rain,0,2012-11-17 07:15:00
11:35 PM,35.6,35.6,100,30.01,2.0,Calm,Calm,-,0.01,Rain,Light Rain,0,2012-11-17 07:35:00
11:55 PM,35.6,35.6,100,30.00,2.5,Calm,Calm,-,0.02,Rain,Light Rain,0,2012-11-17 07:55:00